Location: *
(48.8667°N, 2.3331°E)
Time: 01:57:25
(UTC+00:00)

Mayak - Pass Details

Date: 09 April 2020
Orbit: 581 x 600 km, 97.5° (Epoch: 03 June)

Event Time Altitude Azimuth Distance (km) Brightness Sun altitude
Rises 22:00:26 0° 15° (NNE) 2,824 ? -28.1°
Reaches altitude 10° 22:02:38 10° 18° (NNE) 1,916 ? -28.3°
Enters shadow 22:04:33 26° 25° (NNE) 1,159 ? -28.4°
